Weather History for KONZ - December, 2013

Change the Weather History Date:

Saturday, December 14, 2013

  Actual Average (KDTW) Record (KDTW)
Temperature  
Mean Temperature 21 °F 30 °F  
Max Temperature 23 °F 36 °F 65 °F (1975)
Min Temperature 19 °F 24 °F -1 °F (1914)
Degree Days  
Heating Degree Days 44 35  
Month to date heating degree days 454  
Since 1 July heating degree days 1669  
Cooling Degree Days 0 0  
Month to date cooling degree days 0  
Year to date cooling degree days 803  
Moisture  
Dew Point 18 °F    
Average Humidity 87    
Maximum Humidity 93    
Minimum Humidity 74    
Precipitation  
Precipitation 0.00 in 0.08 in 1.35 in (1901)
Month to date precipitation 1.15  
Year to date precipitation 32.16  
Snow  
Snow 0.00 in 0.30 in 10.00 in (1922)
Month to date snowfall 3.5  
Since 1 July snowfall 5.1  
Snow Depth -    
Sea Level Pressure  
Sea Level Pressure 30.00 in    
Wind  
Wind Speed 15 mph (NE)    
Max Wind Speed 18 mph    
Max Gust Speed 25 mph    
Visibility 4 miles    
Events Snow    
T = Trace of Precipitation, MM = Missing Value Source: NWS Daily Summary

Daily Weather History Graph

Daily Weather History Graph

Search for Another Location

Airport or City:

Trip Planner

Search our weather history database for the weather conditions in past years. The results will help you decide how hot, cold, wet, or windy it might be!

Date:

Astronomy

Dec. 14, 2013 Rise Set
Actual Time 7:53 AM EST 5:01 PM EST
Civil Twilight 7:21 AM EST 5:33 PM EST
Nautical Twilight 6:46 AM EST 6:08 PM EST
Astronomical Twilight 6:12 AM EST 6:42 PM EST
Moon 3:24 PM EST (12/14) 5:11 AM EST (12/14)
Length of Visible Light 10h 11m
Length of Day
9h 08m
Waxing Gibbous, 93% of the Moon is Illuminated
Dec 14
Waxing Gibbous
Dec 17
Full
Dec 25
Last Quarter
Jan 1
New
Jan 7
First Quarter

Hourly Weather History & Observations

Time (EST) Temp. Windchill Dew Point Humidity Pressure Visibility Wind Dir Wind Speed Gust Speed Precip Events Conditions
12:15 AM 21.2 °F 6.4 °F 15.8 °F 80% 30.24 in 10.0 mi NE 18.4 mph 21.9 mph N/A   Mostly Cloudy
12:34 AM 21.2 °F 7.8 °F 14.0 °F 74% 30.23 in 10.0 mi NE 15.0 mph 23.0 mph N/A   Overcast
12:54 AM 21.2 °F 6.8 °F 14.0 °F 74% 30.22 in 10.0 mi NE 17.3 mph - N/A   Overcast
1:14 AM 21.2 °F 7.3 °F 14.0 °F 74% 30.23 in 10.0 mi NE 16.1 mph 19.6 mph N/A   Overcast
1:34 AM 21.2 °F 9.5 °F 15.8 °F 80% 30.24 in 2.0 mi NE 11.5 mph - N/A Snow Light Snow
1:54 AM 21.2 °F 8.3 °F 17.6 °F 86% 30.24 in 2.0 mi NE 13.8 mph - N/A Snow Light Snow
2:14 AM 21.2 °F 9.5 °F 17.6 °F 86% 30.24 in 2.0 mi NE 11.5 mph - N/A Snow Light Snow
2:34 AM 21.2 °F 8.3 °F 17.6 °F 86% 30.23 in 3.0 mi NE 13.8 mph - N/A Snow Light Snow
2:55 AM 21.2 °F 8.3 °F 17.6 °F 86% 30.23 in 3.0 mi NE 13.8 mph - N/A Snow Light Snow
3:14 AM 21.2 °F 8.3 °F 17.6 °F 86% 30.23 in 4.0 mi NE 13.8 mph 18.4 mph N/A Snow Light Snow
3:34 AM 21.2 °F 8.3 °F 17.6 °F 86% 30.21 in 4.0 mi NE 13.8 mph 18.4 mph N/A Snow Light Snow
3:54 AM 21.2 °F 8.3 °F 17.6 °F 86% 30.21 in 4.0 mi NE 13.8 mph 20.7 mph N/A Snow Light Snow
4:14 AM 21.2 °F 7.3 °F 17.6 °F 86% 30.21 in 5.0 mi NE 16.1 mph 20.7 mph N/A Snow Light Snow
4:34 AM 21.2 °F 7.8 °F 17.6 °F 86% 30.19 in 4.0 mi NE 15.0 mph - N/A Snow Light Snow
4:54 AM 21.2 °F 8.3 °F 17.6 °F 86% 30.19 in 4.0 mi NE 13.8 mph 18.4 mph N/A Snow Light Snow
5:14 AM 19.4 °F 6.0 °F 17.6 °F 93% 30.19 in 4.0 mi NE 13.8 mph 23.0 mph N/A Snow Light Snow
5:34 AM 19.4 °F 4.5 °F 17.6 °F 93% 30.18 in 4.0 mi NE 17.3 mph - N/A Snow Light Snow
5:54 AM 19.4 °F 5.0 °F 17.6 °F 93% 30.17 in 5.0 mi NE 16.1 mph 23.0 mph N/A Snow Light Snow
6:14 AM 19.4 °F 5.5 °F 17.6 °F 93% 30.17 in 3.0 mi NE 15.0 mph - N/A Snow Light Snow
6:34 AM 19.4 °F 5.5 °F 15.8 °F 86% 30.17 in 4.0 mi NE 15.0 mph - N/A Snow Light Snow
6:54 AM 19.4 °F 5.0 °F 15.8 °F 86% 30.18 in 2.0 mi NE 16.1 mph 25.3 mph N/A Snow Light Snow
7:14 AM 19.4 °F 4.5 °F 15.8 °F 86% 30.17 in 4.0 mi NE 17.3 mph 23.0 mph N/A Snow Light Snow
7:34 AM 19.4 °F 5.0 °F 15.8 °F 86% 30.16 in 7.0 mi NE 16.1 mph 20.7 mph N/A Snow Light Snow
7:54 AM 19.4 °F 5.0 °F 15.8 °F 86% 30.16 in 10.0 mi NE 16.1 mph 23.0 mph N/A Snow Light Snow
8:14 AM 19.4 °F 4.5 °F 15.8 °F 86% 30.14 in 5.0 mi NE 17.3 mph 25.3 mph N/A Snow Light Snow
8:34 AM 19.4 °F 4.1 °F 15.8 °F 86% 30.14 in 3.0 mi NE 18.4 mph 21.9 mph N/A Snow Light Snow
8:54 AM 19.4 °F 4.5 °F 15.8 °F 86% 30.13 in 3.0 mi NE 17.3 mph 21.9 mph N/A Snow Light Snow
9:15 AM 19.4 °F 5.0 °F 15.8 °F 86% 30.14 in 3.0 mi NE 16.1 mph 21.9 mph N/A Snow Light Snow
9:34 AM 19.4 °F 4.5 °F 15.8 °F 86% 30.13 in 1.5 mi NE 17.3 mph - N/A Snow Light Snow
9:54 AM 19.4 °F 4.5 °F 15.8 °F 86% 30.11 in 2.5 mi NE 17.3 mph 21.9 mph N/A Snow Light Snow
10:14 AM 19.4 °F 5.5 °F 17.6 °F 93% 30.11 in 3.0 mi NE 15.0 mph 21.9 mph N/A Snow Light Snow
10:34 AM 21.2 °F 6.8 °F 17.6 °F 86% 30.10 in 1.8 mi NE 17.3 mph 20.7 mph N/A Snow Light Snow
10:54 AM 21.2 °F 7.3 °F 17.6 °F 86% 30.08 in 2.5 mi NE 16.1 mph - N/A Snow Light Snow
11:14 AM 21.2 °F 8.3 °F 17.6 °F 86% 30.07 in 2.5 mi NE 13.8 mph - N/A Snow Light Snow
11:34 AM 19.4 °F 5.5 °F 17.6 °F 93% 30.05 in 1.2 mi NE 15.0 mph 21.9 mph N/A Snow Light Snow
11:54 AM 19.4 °F 5.0 °F 17.6 °F 93% 30.03 in 1.2 mi NE 16.1 mph 23.0 mph N/A Snow Light Snow
12:14 PM 21.2 °F 7.8 °F 17.6 °F 86% 30.01 in 1.5 mi NE 15.0 mph - N/A Snow Light Snow
12:34 PM 21.2 °F 6.8 °F 17.6 °F 86% 29.98 in 1.5 mi NE 17.3 mph - N/A Snow Light Snow
12:54 PM 21.2 °F 7.3 °F 17.6 °F 86% 29.96 in 2.0 mi NE 16.1 mph 20.7 mph N/A Snow Light Snow
1:14 PM 21.2 °F 6.8 °F 17.6 °F 86% 29.94 in 1.5 mi NE 17.3 mph 23.0 mph N/A Snow Light Snow
1:34 PM 21.2 °F 6.8 °F 17.6 °F 86% 29.93 in 2.0 mi NE 17.3 mph - N/A Snow Light Snow
1:54 PM 21.2 °F 6.4 °F 19.4 °F 93% 29.91 in 2.5 mi NE 18.4 mph - N/A Snow Light Snow
2:14 PM 21.2 °F 6.4 °F 19.4 °F 93% 29.90 in 3.0 mi NE 18.4 mph 24.2 mph N/A Snow Light Snow
2:34 PM 21.2 °F 6.8 °F 19.4 °F 93% 29.88 in 2.5 mi NE 17.3 mph - N/A Snow Light Snow
2:54 PM 21.2 °F 6.4 °F 19.4 °F 93% 29.87 in 2.0 mi NE 18.4 mph 24.2 mph N/A Snow Light Snow
3:14 PM 21.2 °F 7.8 °F 19.4 °F 93% 29.86 in 2.5 mi NE 15.0 mph 23.0 mph N/A Snow Light Snow
3:34 PM 21.2 °F 6.4 °F 19.4 °F 93% 29.86 in 2.5 mi NE 18.4 mph 24.2 mph N/A Snow Light Snow
3:54 PM 21.2 °F 7.3 °F 19.4 °F 93% 29.86 in 1.5 mi NE 16.1 mph 21.9 mph N/A Snow Light Snow
4:14 PM 21.2 °F 6.8 °F 19.4 °F 93% 29.86 in 1.5 mi NE 17.3 mph - N/A Snow Light Snow
4:34 PM 21.2 °F 6.4 °F 19.4 °F 93% 29.85 in 1.0 mi NE 18.4 mph 24.2 mph N/A Snow Light Snow
4:54 PM 21.2 °F 6.4 °F 19.4 °F 93% 29.84 in 2.0 mi NE 18.4 mph 21.9 mph N/A Snow Light Snow
5:13 PM 21.2 °F 7.3 °F 19.4 °F 93% 29.83 in 2.0 mi NNE 16.1 mph 21.9 mph N/A Snow Light Snow
5:34 PM 21.2 °F 6.8 °F 19.4 °F 93% 29.83 in 1.2 mi NNE 17.3 mph 20.7 mph N/A Snow Light Snow
5:54 PM 21.2 °F 7.3 °F 19.4 °F 93% 29.82 in 1.2 mi NNE 16.1 mph - N/A Snow Light Snow
6:14 PM 21.2 °F 7.3 °F 19.4 °F 93% 29.81 in 1.2 mi NNE 16.1 mph 20.7 mph N/A Snow Light Snow
6:34 PM 23.0 °F 10.1 °F 19.4 °F 86% 29.81 in 1.5 mi NNE 15.0 mph 19.6 mph N/A Snow Light Snow
6:53 PM 23.0 °F 10.1 °F 19.4 °F 86% 29.80 in 1.8 mi NNE 15.0 mph - N/A Snow Light Snow
7:14 PM 23.0 °F 11.7 °F 19.4 °F 86% 29.80 in 1.2 mi NNE 11.5 mph - N/A Snow Light Snow
7:34 PM 23.0 °F 11.1 °F 19.4 °F 86% 29.79 in 1.5 mi NNE 12.7 mph 19.6 mph N/A Snow Light Snow
7:54 PM 23.0 °F 11.7 °F 19.4 °F 86% 29.79 in 1.5 mi NNE 11.5 mph 17.3 mph N/A Snow Light Snow
8:14 PM 23.0 °F 11.7 °F 19.4 °F 86% 29.78 in 2.0 mi North 11.5 mph 18.4 mph N/A Snow Light Snow
8:34 PM 23.0 °F 11.7 °F 19.4 °F 86% 29.78 in 4.0 mi NNE 11.5 mph 17.3 mph N/A Snow Light Snow
8:54 PM 23.0 °F 11.7 °F 19.4 °F 86% 29.78 in 5.0 mi North 11.5 mph - N/A Snow Light Snow
9:14 PM 23.0 °F 12.4 °F 19.4 °F 86% 29.78 in 4.0 mi North 10.4 mph - N/A Snow Light Snow
9:34 PM 23.0 °F 14.7 °F 19.4 °F 86% 29.77 in 7.0 mi North 6.9 mph - N/A Snow Light Snow
9:54 PM 21.2 °F 10.9 °F 19.4 °F 93% 29.77 in 7.0 mi North 9.2 mph - N/A Snow Light Snow
10:14 PM 21.2 °F 8.9 °F 17.6 °F 86% 29.77 in 10.0 mi North 12.7 mph - N/A Snow Light Snow
10:34 PM 21.2 °F 10.1 °F 17.6 °F 86% 29.77 in 7.0 mi North 10.4 mph - N/A Snow Light Snow
10:54 PM 23.0 °F 12.4 °F 19.4 °F 86% 29.77 in 10.0 mi NNW 10.4 mph - N/A   Overcast
11:14 PM 23.0 °F 11.7 °F 19.4 °F 86% 29.77 in 7.0 mi NNW 11.5 mph - N/A Snow Light Snow
11:34 PM 23.0 °F 11.7 °F 19.4 °F 86% 29.77 in 10.0 mi NNW 11.5 mph - N/A   Overcast
11:54 PM 23.0 °F 12.4 °F 19.4 °F 86% 29.78 in 5.0 mi NNW 10.4 mph - N/A   Overcast